Flag for Switzerland Weather past 2 weeks in Allschwil, Basel-Land, Switzerland

Now
74 °F

Passing clouds.


Feels Like: 77 °F
Forecast: 62 / 89 °F
Wind: 3 mph from Southwest

Location: Bale-Mulhouse

Current Time: Aug 30, 2015 at 10:19:46 PM

Latest Report: Aug 30, 2015 at 9:00 PM


Visibility: 19 mi

Pressure: 30.01 "Hg

Humidity: 62%

Dew point: 61 °F

Location of AllschwilLocation

Historic Weather in Allschwil — Graph

°F

Allschwil temperature yesterday

Maximum temperature yesterday: 90 °F (at 5:00 PM)
Minimum temperature yesterday: 63 °F (at 3:00 AM)
Average temperature yesterday: 75 °F

Past Weeks' High & Low Weather Summary

 TemperatureHumidityPressure
High93 °F (Aug 30, 4:00 PM)99% (Aug 20, 8:00 AM)30.26 "Hg (Aug 20, 8:00 AM)
Low49 °F (Aug 20, 7:00 AM)24% (Aug 30, 5:00 PM)29.68 "Hg (Aug 24, 1:00 PM)
Average67 °F71%30.01 "Hg
* Reported Aug 15 9:00 PM — Aug 30 9:00 PM, Allschwil, Weather by CustomWeather, © 2015

Note: Actual official high and low records may vary slightly from our data, if they occured in-between our weather recording intervals... More about our weather records

Advertising

Allschwil weather history for previous 24 hours

 ConditionsComfort  
Time TempWeatherWind HumidityBarometerVisibility
9:00 PM
Sun, Aug 30
74 °FPassing clouds.3 mph62%30.01 "Hg19 mi
8:00 PM80 °FPassing clouds.3 mph54%29.98 "Hg25 mi
7:00 PM91 °FPassing clouds.3 mph29%29.97 "Hg25 mi
6:00 PM93 °FPassing clouds.5 mph24%29.97 "Hg25 mi
5:00 PM93 °FPassing clouds.5 mph24%29.98 "Hg25 mi
4:00 PM93 °FPassing clouds.3 mph27%29.99 "Hg25 mi
3:00 PM92 °FHot.7 mph26%30.01 "Hg16 mi
2:00 PM90 °FPassing clouds.6 mph35%30.04 "Hg25 mi
1:00 PM88 °FPassing clouds.6 mph40%30.06 "Hg25 mi
12:00 PM86 °FPassing clouds.9 mph40%30.09 "Hg25 mi
11:00 AM82 °FPassing clouds.2 mph49%30.10 "Hg25 mi
10:00 AM77 °FScattered clouds.5 mph64%30.11 "Hg25 mi
9:00 AM75 °FScattered clouds.5 mph70%30.11 "Hg25 mi
8:00 AM70 °FScattered clouds.5 mph81%30.12 "Hg19 mi
7:00 AM67 °FScattered clouds.5 mph87%30.11 "Hg12 mi
6:00 AM67 °FPassing clouds.3 mph89%30.11 "Hg12 mi
5:00 AM66 °FPassing clouds.No wind89%30.10 "Hg12 mi
4:00 AM65 °FMild.3 mph93%30.10 "Hg12 mi
3:00 AM66 °FMild.1 mph93%30.09 "Hg9 mi
2:00 AM67 °FMild.2 mph89%30.09 "Hg22 mi
1:00 AM68 °FMild.2 mph89%30.09 "Hg22 mi
12:00 AM69 °FClear.2 mph86%30.09 "Hg12 mi
10:00 PM
Sat, Aug 29
73 °FPassing clouds.3 mph79%30.07 "Hg19 mi
Weather by CustomWeather, © 2015

See weather overviewHow to use our weather pages